This is the latest recevied weather packets stored in our database for station/object WX2P-13. If no packets are shown the sender has not sent any weather packets the latest 10 day(s).
| Time | Temp. | Humidity | Pressure | Rain* | Wind** | Luminosity | Snow |
|---|---|---|---|---|---|---|---|
| 1778009714 | 29.44° C | 56% | 1015.3 hPa | 0 mm | - | 164 W/m² | - |
| 1778009411 | 29.44° C | 57% | 1015.4 hPa | 0 mm | - | 189 W/m² | - |
| 1778009109 | 29.44° C | 51% | 1015.4 hPa | 0 mm | - | 156 W/m² | - |
| 1778008807 | 29.44° C | 49% | 1015.5 hPa | 0 mm | - | 158 W/m² | - |
| 1778008505 | 29.44° C | 50% | 1015.4 hPa | 0 mm | - | 175 W/m² | - |
| 1778008203 | 28.89° C | 50% | 1015.7 hPa | 0 mm | - | 134 W/m² | - |
| 1778007897 | 29.44° C | 50% | 1015.7 hPa | 0 mm | - | 123 W/m² | - |
| 1778006379 | 29.44° C | 50% | 1015.8 hPa | 0 mm | - | 154 W/m² | - |
| 1778006077 | 29.44° C | 50% | 1016 hPa | 0 mm | - | 180 W/m² | - |
| 1778005773 | 30° C | 50% | 1015.9 hPa | 0 mm | - | 176 W/m² | - |
| 1778005471 | 30.56° C | 50% | 1015.9 hPa | 0 mm | - | 333 W/m² | - |
| 1778005166 | 29.44° C | 52% | 1016.2 hPa | 0 mm | - | 423 W/m² | - |
| 1778004864 | 28.89° C | 52% | 1016.1 hPa | 0 mm | - | 169 W/m² | - |
| 1778004561 | 30° C | 53% | 1016.1 hPa | 0 mm | - | 139 W/m² | - |
| 1778004257 | 29.44° C | 52% | 1016 hPa | 0 mm | - | 493 W/m² | - |
| 1778003039 | 30° C | 49% | 1016.2 hPa | 0 mm | - | 760 W/m² | - |
| 1778002734 | 29.44° C | 52% | 1016.3 hPa | 0 mm | - | 782 W/m² | - |
| 1778002431 | 27.78° C | 55% | 1016.3 hPa | 0 mm | - | 812 W/m² | - |
| 1778002128 | 27.78° C | 56% | 1016.5 hPa | 0 mm | - | 133 W/m² | - |
| 1778001826 | 28.33° C | 55% | 1016.8 hPa | 0 mm | - | 106 W/m² | - |
| 1778001525 | 28.89° C | 54% | 1016.6 hPa | 0 mm | - | 107 W/m² | - |
| 1778001222 | 29.44° C | 52% | 1016.6 hPa | 0 mm | - | 189 W/m² | - |
| 1778000919 | 29.44° C | 54% | 1016.7 hPa | 0 mm | - | 628 W/m² | - |
| 1778000616 | 29.44° C | 53% | 1016.9 hPa | 0 mm | - | 661 W/m² | - |
| 1778000007 | 28.33° C | 55% | 1016.7 hPa | 0 mm | - | 278 W/m² | - |
* Rain latest hour (hover to see other rain measurements)
** Current wind speed in m/s (hover to see current wind gust speed)